Regional Weather Roundup
Issued by NWS Upton, NY

Home | Current Version | Previous Version | Text Only | Print | Product List | Glossary On
Versions: 1 2 3 4 5 6 7 8 9 10 11 12 13 14 15 16 17 18 19 20 21 22 23 24 25 26 27
000
ASUS41 KOKX 030208
RWROKX

REGIONAL WEATHER ROUNDUP
NATIONAL WEATHER SERVICE NEW YORK NY
900 PM EST FRI DEC 02 2016

NOTE: "FAIR" INDICATES FEW OR NO CLOUDS BELOW 12,000 FEET WITH NO
SIGNIFICANT WEATHER AND/OR OBSTRUCTIONS TO VISIBILITY.

NYZ071-072-176-178-NJZ106-104-030300-
NEW YORK CITY METRO AREA

CITY           SKY/WX    TMP DP  RH WIND       PRES   REMARKS
Central Park   CLOUDY    46  28  49 W12G21    29.92S
Wall St Helipt MOCLDY    46  32  58 W15G24    29.92R
Bronx Bot Gard NOT AVBL
LaGuardia APRT MOCLDY    48  29  47 W16G24    29.89S
Kennedy INTL   MOCLDY    47  28  47 W22G32    29.91S
Breezy Point     N/A     45 N/A N/A W17G28      N/A
Newark/Liberty MOCLDY    45  28  51 W15       29.91S
Teterboro      MOCLDY    46  28  49 W10       29.89S
$$

NYZ177-179-078>081-030300-
LONG ISLAND NEW YORK

CITY           SKY/WX    TMP DP  RH WIND       PRES   REMARKS
Jones Beach      N/A     45 N/A N/A W20G28      N/A
Matinecock PT    N/A     46 N/A N/A W28G35      N/A
Farmingdale    CLOUDY    47  28  47 W14       29.88S
MacArthur/ISP  MOCLDY    46  28  49 W13G21    29.86S
Shirley        CLOUDY    46  29  51 W12G18    29.86S
Westhampton    CLOUDY    44  29  55 W7        29.87S
Southampton    NOT AVBL
Bridgehampton  NOT AVBL
East Hampton     N/A     45  30  57 W9G16     29.83F
Montauk          N/A     46  32  58 W13G25    29.83S
$$

NYZ052-065-067-030300-
HUDSON VALLEY

CITY           SKY/WX    TMP DP  RH WIND       PRES   REMARKS
White Plains   MOCLDY    43  29  57 W14G23    29.86S
Newburgh       PTCLDY    39  34  81 W18       29.87F WCI  30
Montgomery     MOCLDY    41  30  65 W8        29.86F
Poughkeepsie   CLOUDY    41  30  65 SW14      29.85F
Albany         DRIZZLE   42  28  57 W16G23    29.82R
$$

NJZ001-105-106-008-010-013-015-019>022-104-030300-
NEW JERSEY

CITY           SKY/WX    TMP DP  RH WIND       PRES   REMARKS
Newark/Liberty MOCLDY    45  28  51 W15       29.91S
Teterboro      MOCLDY    46  28  49 W10       29.89S
Caldwell       MOCLDY    45  28  51 W8        29.91S
Somerville     CLOUDY    44  28  53 W8        29.92S
Linden           N/A    N/A N/A N/A W15G21    29.92R
Sussex         MOCLDY    41  28  60 VRB5      29.89F
Andover          N/A     42  29  59 VRB6      29.90S
Trenton        MOCLDY    43  27  53 W8        29.95S
Millville      CLOUDY    44  30  57 W15       30.02F
Atlantic City  CLOUDY    44  27  51 W15G26    30.00S
Wrightstown    PTCLDY    43  28  56 W14       29.94S
Toms River     PTCLDY    42  28  57 W9        29.97S
Belmar         CLEAR    N/A N/A N/A W10       29.95R
$$

PAZ047>061-062-071-030300-
EASTERN PENNSYLVANIA

CITY           SKY/WX    TMP DP  RH WIND       PRES   REMARKS
Philadelphia   CLOUDY    44  28  53 W16       30.01S
Allentown      CLOUDY    43  28  55 W13       29.95R
Scranton       CLOUDY    40  31  70 W13       29.91S WCI  32
$$

CTZ002-004>006-009-010-012-RIZ004-006-007-MAZ004-011-015-030300-
SOUTHERN NEW ENGLAND
 IN CT

CITY           SKY/WX    TMP DP  RH WIND       PRES   REMARKS
Bradley INTL   PTCLDY    40  28  62 W13       29.80S WCI  32
Hartford       PTCLDY    41  31  67 W6        29.82S
Danbury        PTCLDY    40  30  67 W10       29.85F WCI  33
Wtrbury/Oxford PTCLDY    39  27  60 W9G24     29.83S WCI  33
Bridgeport     CLEAR     45  31  58 W8        29.85F
Meriden        PTCLDY    42  29  59 W7        29.83F
New Haven      PTCLDY    44  30  57 W9G17     29.84F
Chester          N/A     41  30  65 W6        29.81S
Groton         CLEAR     46  33  60 W12       29.81F
Wilimantic     CLEAR     43  31  62 W7        29.80F

 IN RI

CITY           SKY/WX    TMP DP  RH WIND       PRES   REMARKS
Providence     PTCLDY    43  28  55 SW7       29.78F
Block Island   MOCLDY    46  33  60 W17G24    29.81S
Westerly       CLEAR     45  28  51 VRB6      29.81S
 IN MA

CITY           SKY/WX    TMP DP  RH WIND       PRES   REMARKS
Boston         CLEAR     44  29  55 W18       29.73F
Worcester      CLEAR     37  27  67 W16       29.72F WCI  28
Westfield      MOCLDY    34  30  85 S5        29.79F WCI  30
Provincetown   CLEAR     45  31  58 W18G26    29.74F
Nantucket      PTCLDY    45  30  55 W12       29.76F
$$

ANZ330-335-338-340-345-350-353-355-030300-
COASTAL MARINE OBSERVATIONS


STATION/POSITION TIME  SKY/WX   TEMP    WIND        PRES    VSBY  WAVE
                                AIR SEA DIR/SP/G                  HT/PER
                 (UTC)          (F)     (DEG/KT/KT) (MB)    (MI)  (FT/S)
NY HARB ENTRANCE 0050            48 54  270/ 23/ 29 1012.2          3/ 4
20 S FIRE ISLAND 0050            49 54  280/ 25/ 31 1011.5          6/ 6
GREAT SOUTH BAY  0130            47 45                N/A
23 SSW MONTAUK P 0050            50 56  280/ 23/ 29 1010.3          6/ 6
15 E BARNEGAT LI 0130               54                N/A           5/ 4
HUDSON CANYON    0050            51 59              1011.9          7/ 6
KINGS POINT      0130            47 49              1011.8
EXECUTION ROCKS  0145            47     260/ 16/ 21   N/A
CENTRAL LI SOUND NOT AVBL
EASTERN LI SOUND NOT AVBL
ROBBINS REEF     0130            45     280/ 19/ 23 1012.5
$$


>>>>>>>>>>>>>>>>>>>>>>>>>>>> KEY <<<<<<<<<<<<<<<<<<<<<<<<<<<
>                                                          <
>     SKY/WX - Sky Condition/Present Weather               <
>     TMP    - Temperature in Fahrenheit                   <
>     DP     - Dew Point in Fahrenheit                     <
>     RH     - Relative Humidity in Percent                <
>     WIND   - Direction (from) and Speed in MPH           <
>     PRES   - Mean Sea Level Pressure (inches of Hg)      <
>     WCI    - Wind Chill Index                            <
>     VSB    - VISIBILITY IN MILES                         <
>     HX     - HEAT INDEX                                  <
>     TC     - TEMPERATURE IN CELSIUS                      <
>     VRB    - VARIABLE WIND DIRECTION                     <
>                                                          <
>>>>>>>>>>>>>>>>>>>>>>>>>>>> KEY <<<<<<<<<<<<<<<<<<<<<<<<<<<




USA.gov is the U.S. government's official web portal to all federal, state and local government web resources and services.